Location: Newark
(32.9900°N, 111.5400°W)
Time: 15:20:29
(UTC+00:00)

N. Korean satellite - Pass Details

Date: 27 November 2019
Orbit: 455 x 507 km, 97.2° (Epoch: 14 December)

Event Time Altitude Azimuth Distance (km) Brightness Sun altitude
Rises 12:12:38 0° 37° (NE) 2,570 10.6 -23.7°
Reaches altitude 10° 12:15:56 10° 70° (ENE) 1,669 10.1 -23.0°
Maximum altitude 12:17:18 12° 93° (E) 1,551 10.2 -22.8°
Drops below altitude 10° 12:18:40 10° 115° (ESE) 1,653 10.3 -22.5°
Sets 12:21:53 0° 149° (SSE) 2,511 10.8 -21.8°
